SCP
0 0 0 0 0 0 0 0 0 0 0 0 -0 -0 -0 -0 0 0 0 0 0 0 0 0 0 0 0 0 0 0 0 0 1 3 3 3 3 1 0 0 0 0 0 0
0 0 0 0 0 0 0 0 0 0 -0 -0 -0 0 0 -0 0 0 0 0 0 0 0 0 0 0 0 0 0 0 0 0 0 2 3 3 3 3 1 1 1 0 0 0
0 0 0 0 0 0 0 0 0 0 0 0 0 0 0 0 0 0 0 0 0 0 0 0 0 -0 0 0 0 0 0 0 0 1 2 1 0 0 2 2 1 1 0 0
0 0 0 0 0 0 0 0 0 0 0 0 0 0 0 0 0 0 0 0 0 0 -0 -0 -0 -0 0 0 0 0 0 0 0 0 1 1 0 0 0 1 1 1 1 1
0 0 0 0 0 0 0 0 0 0 0 0 0 0 0 0 0 0 -0 0 -0 -0 -0 -0 -0 0 0 0 0 0 0 0 0 0 0 2 1 0 0 0 0 2 2 1
-0 0 0 0 0 0 0 0 0 0 0 0 0 0 0 0 0 0 -0 -0 -0 -0 -0 -0 0 -0 -0 0 0 -0 0 0 0 0 0 1 2 1 1 1 1 2 0 0
0 0 0 0 0 0 0 0 0 0 0 0 0 0 0 0 0 -0 -0 -0 -0 -0 -0 -0 -0 0 0 0 0 0 -0 -0 0 0 0 0 1 2 2 1 2 2 0 0
0 0 0 0 0 0 0 0 0 0 0 0 0 0 0 0 0 -0 -0 -0 -0 -0 0 -0 -0 0 0 0 0 0 0 0 0 0 0 0 1 2 3 2 1 1 1 0
0 0 0 0 0 0 0 0 0 0 0 0 0 0 0 0 -0 -0 -0 -0 -0 -0 -0 -0 0 0 0 0 0 0 0 0 0 0 0 0 1 2 3 2 1 1 1 1
0 0 0 0 0 0 0 0 0 0 0 0 0 0 0 0 -0 -0 -0 -0 -0 0 -0 -0 0 0 0 0 0 0 0 0 0 0 0 0 2 2 3 3 1 1 1 1
0 0 0 0 0 0 0 0 0 0 0 0 0 0 0 -0 -0 -0 -0 -0 0 0 -0 -0 0 0 0 0 0 0 0 0 0 0 0 0 1 2 2 3 2 1 1 1
0 0 0 0 0 0 0 0 0 0 0 0 0 0 0 0 0 -0 -0 0 0 0 0 -0 -0 0 0 0 0 0 0 0 0 0 0 0 1 2 2 2 2 1 1 1
0 0 0 0 0 0 0 0 0 0 0 0 0 0 0 0 0 0 0 0 0 0 0 0 0 -0 -0 0 0 -0 -0 0 0 0 0 0 1 1 2 1 1 1 1 0
0 0 0 0 0 0 0 -0 0 0 0 0 0 0 0 0 -0 -0 0 0 0 0 0 0 0 0 0 0 0 0 -0 0 0 0 0 0 1 1 1 1 1 1 0 0
0 0 0 0 0 0 0 -0 0 0 0 0 0 0 0 0 -0 0 0 0 0 0 0 0 0 0 0 -0 0 0 0 -0 -0 0 0 0 0 0 0 1 0 0 0 0
0 0 0 0 0 0 0 0 0 0 0 0 0 0 0 0 0 0 0 0 0 0 0 0 0 0 0 0 -0 0 0 0 0 0 0 0 0 0 0 0 0 0 0 0
0 0 0 0 0 0 0 0 0 0 0 0 0 0 0 0 0 0 0 0 0 0 0 0 0 0 0 -0 -0 -0 0 0 0 0 0 0 0 0 0 0 0 0 0 0
0 0 0 0 0 0 0 0 0 0 0 0 0 0 0 0 0 0 0 0 0 0 0 0 0 0 -0 -0 0 0 0 0 0 0 0 0 0 0 0 0 0 0 0 0
0 0 0 0 0 0 0 0 0 0 0 0 0 0 0 0 0 0 0 0 0 0 0 0 0 0 -0 -0 0 -0 -0 -0 -0 0 0 0 0 0 0 0 0 0 0 0
0 0 0 0 0 0 0 0 0 0 0 0 0 0 0 0 0 0 0 0 0 0 0 0 0 0 0 0 -0 -0 0 -0 -0 0 0 -0 0 0 0 0 0 0 0 0
0 0 0 0 0 0 0 0 0 0 0 0 0 0 0 0 0 0 0 0 0 0 0 0 0 0 0 0 -0 -0 0 -0 -0 -0 -0 0 0 0 0 0 0 0 0 0
0 0 0 0 0 0 0 0 0 0 0 0 0 0 0 0 0 0 0 0 0 0 0 0 0 0 -0 -0 -0 -0 -0 -0 -0 -0 -0 0 -0 0 0 0 0 0 0 0
0 0 0 0 0 0 0 0 0 0 0 0 0 0 0 0 0 0 0 0 0 0 0 0 -0 -0 -0 -0 0 0 0 0 -0 0 0 0 0 0 0 -0 0 0 0 0
0 0 0 0 0 0 0 0 0 0 0 0 0 0 0 0 0 0 0 0 0 0 0 0 -0 -0 -0 0 0 -0 -0 0 0 -0 0 0 -0 0 0 0 0 0 0 0
0 0 0 0 0 0 0 0 0 0 0 0 0 0 0 0 0 0 0 0 0 0 0 0 -0 -0 0 -0 0 0 0 0 0 0 0 0 0 0 0 0 0 0 0 0
0 0 0 0 0 0 0 0 0 0 0 0 0 0 0 0 0 0 0 0 0 0 0 0 -0 -0 0 -0 -0 0 0 0 0 0 0 0 0 0 0 0 0 0 0 -0
Wind_Speed_500mb
13 8 11 25 19 18 14 7 10 13 11 5 9 14 31 46 47 41 49 48 54 66 54 43 44 34 31 21 21 39 61 59 63 57 61 56 68 78 71 75 66 61 58 67
12 6 16 13 19 10 6 8 11 11 14 11 16 20 14 19 21 38 38 45 58 79 81 76 70 65 48 45 38 34 37 60 68 71 62 63 68 72 81 75 78 68 66 64
5 11 18 14 6 9 7 5 10 13 15 10 7 10 9 9 28 34 49 54 64 62 76 88 80 76 71 66 60 53 53 48 61 75 72 67 63 72 69 77 80 79 83 74
9 25 18 13 1 7 5 12 10 19 8 10 7 8 3 2 17 20 38 53 57 69 75 69 78 77 71 65 53 50 52 52 47 65 84 84 82 76 80 67 85 96 80 92
15 12 31 4 1 2 11 15 11 14 9 6 12 8 7 7 13 14 23 43 52 58 60 81 86 84 78 70 66 67 61 58 52 48 76 94 92 87 82 77 86 104 94 94
11 15 13 8 10 6 7 10 12 10 7 6 6 7 8 6 5 12 23 38 52 66 76 88 85 79 80 73 66 71 74 72 67 63 61 89 103 90 89 82 85 92 104 96
13 11 10 32 18 16 16 14 8 11 10 8 2 7 9 4 3 7 19 49 59 60 69 80 80 86 88 69 64 57 71 83 79 75 73 74 107 98 93 84 91 88 90 91
10 16 13 29 5 10 5 12 8 4 5 10 15 5 6 10 6 15 26 37 57 63 65 66 73 80 77 73 62 64 65 83 89 76 81 75 93 102 101 90 84 76 87 85
6 10 20 10 18 5 5 9 7 8 6 5 8 5 9 5 11 31 38 50 58 62 63 67 79 76 73 70 71 71 69 63 63 56 76 71 86 102 99 90 78 75 80 81
2 11 6 17 16 21 14 5 7 7 3 9 10 10 9 13 17 20 21 37 56 60 65 85 80 80 72 68 72 72 58 48 42 44 61 67 84 104 95 81 81 77 77 75
5 5 13 9 8 4 7 6 2 7 9 6 6 10 6 4 15 20 21 44 57 59 62 70 76 72 74 66 70 81 60 46 39 49 63 67 75 92 93 81 78 73 76 72
4 7 8 14 15 5 8 5 5 7 7 7 4 11 3 11 14 25 30 49 60 62 58 55 75 73 76 72 73 79 61 33 36 50 60 74 71 81 103 74 74 72 73 75
3 3 7 19 13 3 7 22 9 6 5 6 4 11 5 18 19 34 25 48 63 65 68 70 71 81 81 77 76 77 71 42 34 25 23 45 66 84 75 66 66 69 73 80
9 6 12 10 15 12 19 31 11 4 5 7 11 15 16 18 19 26 32 52 62 67 61 59 70 78 80 74 67 75 73 52 38 20 17 25 45 51 48 56 56 61 67 91
8 8 10 14 20 24 26 29 20 6 6 9 9 10 16 18 17 24 33 51 55 62 74 74 70 77 84 79 74 70 68 57 42 25 14 28 45 46 47 40 51 57 69 94
6 7 3 13 17 13 24 8 12 6 5 3 12 13 16 34 34 29 34 45 50 63 68 70 72 72 80 78 73 74 69 66 38 21 10 18 34 37 43 51 50 67 81 94
4 5 2 10 14 11 7 13 10 5 7 6 8 15 9 14 21 25 35 42 51 60 58 66 66 71 78 75 66 71 67 60 46 43 19 15 30 44 49 54 68 88 94 82
10 7 6 8 10 6 10 11 6 9 10 13 14 16 14 24 39 34 35 37 49 58 66 63 62 69 74 70 58 60 57 43 19 33 30 33 32 63 69 72 71 54 89 102
34 8 6 2 3 13 2 11 7 5 9 7 10 13 20 37 24 32 25 34 47 53 57 54 53 60 66 63 52 57 44 30 10 28 46 41 49 71 84 91 99 84 60 77
13 4 7 3 3 7 10 11 22 8 6 5 7 12 14 28 18 9 19 38 54 57 57 53 52 59 62 61 47 46 37 30 21 30 48 64 69 74 85 86 89 94 90 94
5 4 13 7 9 11 9 11 1 8 12 6 9 20 24 9 20 29 28 41 58 56 56 51 47 58 57 53 44 37 28 28 20 27 46 62 77 88 71 79 88 91 100 102
6 5 7 1 3 5 12 12 3 11 2 5 12 18 25 34 21 28 35 44 57 61 55 50 50 58 54 47 37 32 23 19 23 35 52 65 78 80 73 78 96 100 100 97
2 6 4 10 9 12 30 16 5 7 6 14 19 17 22 28 19 27 37 43 55 50 48 46 53 57 51 40 33 25 16 17 28 43 55 68 83 89 95 98 101 103 100 99
12 6 2 6 7 31 33 19 17 19 20 20 21 23 22 20 21 28 34 43 52 48 42 43 46 49 41 32 24 16 13 25 39 50 65 76 85 94 98 106 101 97 99 96
12 10 6 12 18 28 25 40 38 33 27 29 31 24 21 18 24 26 30 38 44 41 39 39 43 40 30 25 18 13 23 30 48 57 64 74 85 90 97 99 100 98 86 83
14 10 8 8 22 13 43 56 26 29 35 38 35 25 23 20 22 23 24 32 37 34 36 36 38 30 24 19 13 24 22 31 47 64 72 76 83 88 89 91 87 71 68 62
Wind_Direction_500mb
318 105 218 242 201 232 231 249 286 285 296 327 288 305 5 54 51 49 48 36 15 4 357 355 348 335 333 332 336 280 255 251 243 246 245 237 240 245 237 236 241 235 230 226
353 239 261 275 232 233 328 313 311 289 309 341 332 318 99 76 63 59 38 18 3 356 350 345 336 328 307 299 294 294 290 261 250 243 252 252 239 241 246 240 235 237 233 229
252 257 328 345 45 66 353 290 281 273 301 293 298 310 180 74 58 39 26 10 1 351 345 343 337 325 312 297 287 276 272 276 261 248 247 249 245 241 241 237 233 231 237 231
306 312 332 290 199 123 348 268 299 304 316 275 110 270 10 105 48 28 9 359 348 341 339 334 333 328 322 305 296 287 271 271 272 251 244 244 246 246 249 240 236 245 236 231
281 295 309 329 166 162 231 279 290 262 267 62 340 75 249 12 10 357 347 341 341 337 333 332 332 330 322 310 291 287 290 274 267 272 248 246 244 249 253 248 231 235 229 230
252 311 35 39 329 346 302 7 6 13 48 38 216 107 314 12 339 333 315 328 340 342 337 338 335 333 322 316 303 284 285 282 275 272 263 249 244 242 242 240 237 232 231 226
330 334 337 40 2 334 52 51 357 2 4 238 275 34 245 247 308 287 310 333 336 337 331 331 333 333 326 323 319 302 284 283 280 273 256 249 243 241 244 240 241 232 239 233
0 329 17 339 259 236 289 123 138 270 292 288 320 178 211 195 239 289 314 333 341 336 327 333 335 331 326 326 321 315 295 281 276 272 251 246 239 237 242 241 242 238 239 233
342 275 324 315 336 334 324 47 148 101 31 34 277 339 288 165 343 343 337 342 334 329 331 340 340 339 333 333 326 322 313 292 270 260 243 237 235 232 239 241 237 235 233 238
268 305 298 321 2 17 95 189 26 26 25 301 309 299 248 352 312 312 319 330 331 325 335 350 344 344 342 342 343 337 325 291 280 262 232 233 227 232 237 243 237 229 232 235
111 129 292 360 34 133 16 7 28 127 138 195 286 260 183 294 295 313 308 335 332 326 338 347 341 339 331 334 345 347 333 328 286 266 238 233 226 229 235 236 236 228 229 230
235 148 297 272 267 124 156 252 174 126 248 231 213 271 281 266 298 316 322 334 336 335 333 335 348 343 339 338 339 345 338 315 322 289 252 234 225 220 230 234 236 226 229 225
204 15 350 343 355 283 338 321 253 154 105 186 243 264 233 332 323 332 325 338 340 340 341 344 342 351 345 343 342 339 343 332 324 326 252 231 230 226 228 238 236 225 225 216
117 146 164 205 236 267 304 305 325 127 116 203 236 282 296 312 315 318 328 339 343 343 335 341 343 345 350 344 339 336 339 351 336 331 260 217 214 223 233 240 238 220 213 199
108 217 229 244 262 275 276 286 310 258 186 159 282 277 283 299 299 304 324 335 337 338 344 344 343 343 348 344 344 341 339 344 349 315 265 221 218 222 224 221 216 208 198 182
343 262 259 292 269 265 302 279 356 293 282 356 320 295 259 304 317 303 321 337 339 340 342 343 342 344 348 343 337 339 339 338 329 328 313 243 200 200 206 195 194 183 187 195
266 208 89 264 303 330 31 343 34 36 9 258 305 267 309 298 315 295 316 335 340 341 338 340 341 344 345 344 339 340 342 337 325 284 250 175 186 182 186 177 174 168 164 168
217 179 172 269 349 357 199 235 225 205 216 259 282 289 306 307 320 322 313 330 337 344 343 347 342 342 344 346 344 346 345 348 29 135 157 165 167 160 158 153 148 166 157 156
202 156 260 203 194 272 216 300 302 285 254 242 269 320 304 334 325 328 316 331 342 342 344 346 344 345 348 351 351 352 357 9 50 116 142 157 160 154 148 143 141 143 155 152
155 166 163 115 220 257 237 267 301 83 263 263 19 306 305 336 345 287 324 340 345 342 349 350 350 349 353 355 360 0 8 28 60 136 142 147 147 145 141 142 146 150 154 154
130 197 214 213 222 273 254 270 83 68 244 306 317 330 329 323 311 312 334 342 342 346 350 352 353 353 355 358 9 14 19 47 89 135 144 147 143 144 145 144 147 148 142 136
188 200 229 79 179 305 330 299 334 238 130 299 308 323 326 331 322 317 327 340 345 350 354 354 351 352 360 2 17 23 40 83 105 134 145 139 139 143 143 148 138 138 136 131
356 164 242 169 224 256 318 339 127 101 2 315 296 300 317 330 306 311 327 340 352 354 357 355 353 354 360 6 23 39 81 111 137 136 138 139 136 139 141 142 140 133 127 126
326 4 250 3 293 324 341 6 310 318 323 318 303 310 312 324 305 312 329 345 355 354 2 1 355 358 2 15 29 55 91 118 127 132 132 136 135 135 136 135 136 135 132 135
219 322 277 275 295 316 315 328 325 320 317 314 316 296 296 311 308 315 333 349 354 357 5 8 3 2 14 26 47 77 116 126 127 131 135 135 135 133 132 132 132 134 136 135
215 215 167 239 312 320 300 320 335 359 356 338 325 296 282 290 303 311 332 351 353 0 12 16 17 22 29 38 73 124 138 146 136 134 134 133 131 131 129 126 121 118 121 126
Wind_Speed_850mb
13 8 11 25 19 18 14 7 10 13 11 5 9 14 31 46 47 41 49 48 54 66 54 43 44 34 31 21 21 39 61 59 63 57 61 56 68 78 71 75 66 61 58 67
12 6 16 13 19 10 6 8 11 11 14 11 16 20 14 19 21 38 38 45 58 79 81 76 70 65 48 45 38 34 37 60 68 71 62 63 68 72 81 75 78 68 66 64
5 11 18 14 6 9 7 5 10 13 15 10 7 10 9 9 28 34 49 54 64 62 76 88 80 76 71 66 60 53 53 48 61 75 72 67 63 72 69 77 80 79 83 74
9 25 18 13 1 7 5 12 10 19 8 10 7 8 3 2 17 20 38 53 57 69 75 69 78 77 71 65 53 50 52 52 47 65 84 84 82 76 80 67 85 96 80 92
15 12 31 4 1 2 11 15 11 14 9 6 12 8 7 7 13 14 23 43 52 58 60 81 86 84 78 70 66 67 61 58 52 48 76 94 92 87 82 77 86 104 94 94
11 15 13 8 10 6 7 10 12 10 7 6 6 7 8 6 5 12 23 38 52 66 76 88 85 79 80 73 66 71 74 72 67 63 61 89 103 90 89 82 85 92 104 96
13 11 10 32 18 16 16 14 8 11 10 8 2 7 9 4 3 7 19 49 59 60 69 80 80 86 88 69 64 57 71 83 79 75 73 74 107 98 93 84 91 88 90 91
10 16 13 29 5 10 5 12 8 4 5 10 15 5 6 10 6 15 26 37 57 63 65 66 73 80 77 73 62 64 65 83 89 76 81 75 93 102 101 90 84 76 87 85
6 10 20 10 18 5 5 9 7 8 6 5 8 5 9 5 11 31 38 50 58 62 63 67 79 76 73 70 71 71 69 63 63 56 76 71 86 102 99 90 78 75 80 81
2 11 6 17 16 21 14 5 7 7 3 9 10 10 9 13 17 20 21 37 56 60 65 85 80 80 72 68 72 72 58 48 42 44 61 67 84 104 95 81 81 77 77 75
5 5 13 9 8 4 7 6 2 7 9 6 6 10 6 4 15 20 21 44 57 59 62 70 76 72 74 66 70 81 60 46 39 49 63 67 75 92 93 81 78 73 76 72
4 7 8 14 15 5 8 5 5 7 7 7 4 11 3 11 14 25 30 49 60 62 58 55 75 73 76 72 73 79 61 33 36 50 60 74 71 81 103 74 74 72 73 75
3 3 7 19 13 3 7 22 9 6 5 6 4 11 5 18 19 34 25 48 63 65 68 70 71 81 81 77 76 77 71 42 34 25 23 45 66 84 75 66 66 69 73 80
9 6 12 10 15 12 19 31 11 4 5 7 11 15 16 18 19 26 32 52 62 67 61 59 70 78 80 74 67 75 73 52 38 20 17 25 45 51 48 56 56 61 67 91
8 8 10 14 20 24 26 29 20 6 6 9 9 10 16 18 17 24 33 51 55 62 74 74 70 77 84 79 74 70 68 57 42 25 14 28 45 46 47 40 51 57 69 94
6 7 3 13 17 13 24 8 12 6 5 3 12 13 16 34 34 29 34 45 50 63 68 70 72 72 80 78 73 74 69 66 38 21 10 18 34 37 43 51 50 67 81 94
4 5 2 10 14 11 7 13 10 5 7 6 8 15 9 14 21 25 35 42 51 60 58 66 66 71 78 75 66 71 67 60 46 43 19 15 30 44 49 54 68 88 94 82
10 7 6 8 10 6 10 11 6 9 10 13 14 16 14 24 39 34 35 37 49 58 66 63 62 69 74 70 58 60 57 43 19 33 30 33 32 63 69 72 71 54 89 102
34 8 6 2 3 13 2 11 7 5 9 7 10 13 20 37 24 32 25 34 47 53 57 54 53 60 66 63 52 57 44 30 10 28 46 41 49 71 84 91 99 84 60 77
13 4 7 3 3 7 10 11 22 8 6 5 7 12 14 28 18 9 19 38 54 57 57 53 52 59 62 61 47 46 37 30 21 30 48 64 69 74 85 86 89 94 90 94
5 4 13 7 9 11 9 11 1 8 12 6 9 20 24 9 20 29 28 41 58 56 56 51 47 58 57 53 44 37 28 28 20 27 46 62 77 88 71 79 88 91 100 102
6 5 7 1 3 5 12 12 3 11 2 5 12 18 25 34 21 28 35 44 57 61 55 50 50 58 54 47 37 32 23 19 23 35 52 65 78 80 73 78 96 100 100 97
2 6 4 10 9 12 30 16 5 7 6 14 19 17 22 28 19 27 37 43 55 50 48 46 53 57 51 40 33 25 16 17 28 43 55 68 83 89 95 98 101 103 100 99
12 6 2 6 7 31 33 19 17 19 20 20 21 23 22 20 21 28 34 43 52 48 42 43 46 49 41 32 24 16 13 25 39 50 65 76 85 94 98 106 101 97 99 96
12 10 6 12 18 28 25 40 38 33 27 29 31 24 21 18 24 26 30 38 44 41 39 39 43 40 30 25 18 13 23 30 48 57 64 74 85 90 97 99 100 98 86 83
14 10 8 8 22 13 43 56 26 29 35 38 35 25 23 20 22 23 24 32 37 34 36 36 38 30 24 19 13 24 22 31 47 64 72 76 83 88 89 91 87 71 68 62
Wind_Direction_850mb
318 105 218 242 201 232 231 249 286 285 296 327 288 305 5 54 51 49 48 36 15 4 357 355 348 335 333 332 336 280 255 251 243 246 245 237 240 245 237 236 241 235 230 226
353 239 261 275 232 233 328 313 311 289 309 341 332 318 99 76 63 59 38 18 3 356 350 345 336 328 307 299 294 294 290 261 250 243 252 252 239 241 246 240 235 237 233 229
252 257 328 345 45 66 353 290 281 273 301 293 298 310 180 74 58 39 26 10 1 351 345 343 337 325 312 297 287 276 272 276 261 248 247 249 245 241 241 237 233 231 237 231
306 312 332 290 199 123 348 268 299 304 316 275 110 270 10 105 48 28 9 359 348 341 339 334 333 328 322 305 296 287 271 271 272 251 244 244 246 246 249 240 236 245 236 231
281 295 309 329 166 162 231 279 290 262 267 62 340 75 249 12 10 357 347 341 341 337 333 332 332 330 322 310 291 287 290 274 267 272 248 246 244 249 253 248 231 235 229 230
252 311 35 39 329 346 302 7 6 13 48 38 216 107 314 12 339 333 315 328 340 342 337 338 335 333 322 316 303 284 285 282 275 272 263 249 244 242 242 240 237 232 231 226
330 334 337 40 2 334 52 51 357 2 4 238 275 34 245 247 308 287 310 333 336 337 331 331 333 333 326 323 319 302 284 283 280 273 256 249 243 241 244 240 241 232 239 233
0 329 17 339 259 236 289 123 138 270 292 288 320 178 211 195 239 289 314 333 341 336 327 333 335 331 326 326 321 315 295 281 276 272 251 246 239 237 242 241 242 238 239 233
342 275 324 315 336 334 324 47 148 101 31 34 277 339 288 165 343 343 337 342 334 329 331 340 340 339 333 333 326 322 313 292 270 260 243 237 235 232 239 241 237 235 233 238
268 305 298 321 2 17 95 189 26 26 25 301 309 299 248 352 312 312 319 330 331 325 335 350 344 344 342 342 343 337 325 291 280 262 232 233 227 232 237 243 237 229 232 235
111 129 292 360 34 133 16 7 28 127 138 195 286 260 183 294 295 313 308 335 332 326 338 347 341 339 331 334 345 347 333 328 286 266 238 233 226 229 235 236 236 228 229 230
235 148 297 272 267 124 156 252 174 126 248 231 213 271 281 266 298 316 322 334 336 335 333 335 348 343 339 338 339 345 338 315 322 289 252 234 225 220 230 234 236 226 229 225
204 15 350 343 355 283 338 321 253 154 105 186 243 264 233 332 323 332 325 338 340 340 341 344 342 351 345 343 342 339 343 332 324 326 252 231 230 226 228 238 236 225 225 216
117 146 164 205 236 267 304 305 325 127 116 203 236 282 296 312 315 318 328 339 343 343 335 341 343 345 350 344 339 336 339 351 336 331 260 217 214 223 233 240 238 220 213 199
108 217 229 244 262 275 276 286 310 258 186 159 282 277 283 299 299 304 324 335 337 338 344 344 343 343 348 344 344 341 339 344 349 315 265 221 218 222 224 221 216 208 198 182
343 262 259 292 269 265 302 279 356 293 282 356 320 295 259 304 317 303 321 337 339 340 342 343 342 344 348 343 337 339 339 338 329 328 313 243 200 200 206 195 194 183 187 195
266 208 89 264 303 330 31 343 34 36 9 258 305 267 309 298 315 295 316 335 340 341 338 340 341 344 345 344 339 340 342 337 325 284 250 175 186 182 186 177 174 168 164 168
217 179 172 269 349 357 199 235 225 205 216 259 282 289 306 307 320 322 313 330 337 344 343 347 342 342 344 346 344 346 345 348 29 135 157 165 167 160 158 153 148 166 157 156
202 156 260 203 194 272 216 300 302 285 254 242 269 320 304 334 325 328 316 331 342 342 344 346 344 345 348 351 351 352 357 9 50 116 142 157 160 154 148 143 141 143 155 152
155 166 163 115 220 257 237 267 301 83 263 263 19 306 305 336 345 287 324 340 345 342 349 350 350 349 353 355 360 0 8 28 60 136 142 147 147 145 141 142 146 150 154 154
130 197 214 213 222 273 254 270 83 68 244 306 317 330 329 323 311 312 334 342 342 346 350 352 353 353 355 358 9 14 19 47 89 135 144 147 143 144 145 144 147 148 142 136
188 200 229 79 179 305 330 299 334 238 130 299 308 323 326 331 322 317 327 340 345 350 354 354 351 352 360 2 17 23 40 83 105 134 145 139 139 143 143 148 138 138 136 131
356 164 242 169 224 256 318 339 127 101 2 315 296 300 317 330 306 311 327 340 352 354 357 355 353 354 360 6 23 39 81 111 137 136 138 139 136 139 141 142 140 133 127 126
326 4 250 3 293 324 341 6 310 318 323 318 303 310 312 324 305 312 329 345 355 354 2 1 355 358 2 15 29 55 91 118 127 132 132 136 135 135 136 135 136 135 132 135
219 322 277 275 295 316 315 328 325 320 317 314 316 296 296 311 308 315 333 349 354 357 5 8 3 2 14 26 47 77 116 126 127 131 135 135 135 133 132 132 132 134 136 135
215 215 167 239 312 320 300 320 335 359 356 338 325 296 282 290 303 311 332 351 353 0 12 16 17 22 29 38 73 124 138 146 136 134 134 133 131 131 129 126 121 118 121 126